EW5380 Weather Reports


time (UTC)temp
F
wind
direction
speed
knots
gust
knots
rain 1hr
in
rain 24hr
in
rain mn
in
humidity
%
barometer
mb
20260906052455 68 317 0.0 0.0 0.00 0.00 0.00 99 1016.3
20260906051952 68 317 0.0 0.0 0.00 0.00 0.00 99 1016.7
20260906051447 68 317 0.0 0.0 0.00 0.00 0.00 99 1016.3
20260906050943 68 317 0.0 0.0 0.00 0.00 0.00 99 1016.7
20260906050442 68 317 0.0 0.0 0.00 0.00 0.00 99 1016.7
20260906045942 68 317 0.0 0.0 0.00 0.00 0.00 99 1016.7
20260906045441 68 319 0.0 0.0 0.00 0.00 0.00 99 1016.7
20260906044937 68 320 0.0 0.0 0.00 0.00 0.00 98 1016.7
20260906044432 68 320 0.0 0.0 0.00 0.00 0.00 99 1016.7
20260906043927 68 320 0.0 0.0 0.00 0.00 0.00 99 1016.7
20260906043423 68 320 0.0 0.0 0.00 0.00 0.00 98 1016.3
20260906042919 68 320 0.0 0.0 0.00 0.00 0.00 99 1016.7
20260906042418 68 320 0.0 0.0 0.00 0.00 0.00 99 1016.7
20260906041913 68 320 0.0 0.0 0.00 0.00 0.00 98 1016.3
20260906041409 68 320 0.0 0.0 0.00 0.00 0.00 98 1016.3
20260906040909 69 320 0.0 0.0 0.00 0.00 0.00 98 1016.3
20260906040404 69 320 0.0 0.0 0.00 0.00 0.00 99 1016.3
20260906035859 69 320 0.0 0.0 0.00 0.04 0.04 99 1016.3
20260906035354 69 320 0.0 0.0 0.00 0.04 0.04 99 1016.7
20260906034850 69 320 0.0 0.0 0.00 0.04 0.04 99 1016.7
20260906034344 69 320 0.0 0.0 0.00 0.04 0.04 98 1016.7
20260906033840 69 320 0.0 0.0 0.00 0.04 0.04 98 1016.7
20260906033339 69 320 0.0 0.0 0.00 0.04 0.04 98 1016.7
20260906032836 69 320 0.0 0.0 0.00 0.04 0.04 98 1017.0
20260906032331 69 320 0.0 0.0 0.00 0.04 0.04 98 1017.0
20260906031826 69 320 0.0 0.0 0.00 0.04 0.04 98 1017.0
20260906031322 69 320 0.0 0.0 0.00 0.04 0.04 98 1017.3
20260906030821 69 320 0.0 0.0 0.00 0.04 0.04 98 1017.3
20260906030317 69 320 0.0 0.0 0.00 0.04 0.04 98 1017.3
20260906025811 69 320 0.0 0.0 0.00 0.04 0.04 97 1017.0
20260906025306 69 320 0.0 0.0 0.00 0.04 0.04 97 1017.0
20260906024804 70 320 0.0 0.0 0.00 0.04 0.04 98 1017.0
20260906024304 70 320 0.0 0.0 0.00 0.04 0.04 97 1016.7
20260906023759 70 320 0.0 0.0 0.00 0.04 0.04 97 1016.7
20260906023254 70 320 0.0 0.0 0.00 0.04 0.04 98 1017.0
20260906022750 70 320 0.0 0.0 0.00 0.04 0.04 98 1016.7
20260906022245 70 320 0.0 0.0 0.00 0.04 0.04 98 1016.7
20260906021741 70 320 0.0 0.0 0.00 0.04 0.04 98 1016.3
20260906021240 70 320 0.0 0.0 0.00 0.04 0.04 97 1016.3
20260906020735 70 320 0.0 0.0 0.00 0.04 0.04 97 1016.3
20260906020235 70 320 0.0 0.0 0.00 0.04 0.04 97 1016.3
20260906015729 70 320 0.0 0.0 0.00 0.04 0.04 97 1016.3
20260906015228 70 320 0.0 0.0 0.00 0.04 0.04 97 1016.3
20260906014723 70 320 0.0 0.0 0.00 0.04 0.04 97 1016.3
20260906014219 71 320 0.0 0.0 0.00 0.04 0.04 98 1016.3
20260906013714 71 320 0.0 0.0 0.00 0.04 0.04 97 1016.3
20260906013214 71 320 0.0 0.0 0.00 0.04 0.04 97 1016.3
20260906012709 71 320 0.0 0.0 0.00 0.04 0.04 97 1016.3
20260906012204 71 320 0.0 0.0 0.00 0.04 0.04 97 1015.9
20260906011700 71 320 0.0 0.0 0.00 0.04 0.04 97 1016.3
20260906011154 71 320 0.0 0.0 0.00 0.04 0.04 97 1016.3
20260906010649 71 320 0.0 0.0 0.00 0.04 0.04 96 1015.9
20260906010146 72 320 0.0 0.0 0.00 0.04 0.04 96 1015.9
20260906005645 72 320 0.0 0.0 0.00 0.04 0.04 95 1016.3
20260906005144 72 320 0.0 0.0 0.00 0.04 0.04 95 1016.3
20260906004643 72 320 0.0 0.0 0.00 0.04 0.04 95 1015.9
20260906004139 73 320 0.0 0.0 0.00 0.04 0.04 93 1015.6
20260906003634 73 320 0.0 0.0 0.00 0.04 0.04 94 1015.9
20260906003130 73 320 0.0 0.0 0.00 0.04 0.04 94 1015.9
20260906002624 73 320 0.0 0.0 0.00 0.04 0.04 94 1015.6
20260906002119 73 320 0.0 0.0 0.00 0.04 0.04 94 1015.6
20260906001614 73 320 0.0 0.0 0.00 0.04 0.04 94 1015.6
20260906001109 74 320 0.0 0.0 0.00 0.04 0.04 93 1015.6
20260906000605 74 320 0.0 0.0 0.00 0.04 0.04 93 1015.6
20260906000100 74 320 0.0 0.0 0.00 0.04 0.04 93 1015.6
20260905235559 75 320 0.0 0.0 0.00 0.04 0.04 92 1015.6
20260905235054 75 320 0.0 0.0 0.00 0.04 0.04 91 1015.6
20260905234549 75 320 0.0 0.0 0.00 0.04 0.04 91 1015.6
20260905234044 75 320 0.0 0.0 0.00 0.04 0.04 90 1015.6
20260905233539 75 320 0.0 0.0 0.00 0.04 0.04 87 1015.6
20260905233038 75 320 0.0 0.0 0.00 0.04 0.04 87 1015.2
20260905232534 75 320 0.0 0.0 0.00 0.04 0.04 87 1015.6
20260905232030 75 320 0.0 0.0 0.00 0.04 0.04 87 1015.2
20260905231525 75 320 0.0 0.0 0.00 0.04 0.04 87 1015.2
20260905231021 75 320 0.0 0.0 0.00 0.04 0.04 88 1015.2
20260905230520 75 320 0.0 0.0 0.00 0.04 0.04 87 1015.2
20260905230019 75 320 0.0 0.0 0.00 0.04 0.04 86 1015.2
20260905225514 75 320 0.0 0.0 0.00 0.04 0.04 88 1014.9
20260905225009 76 320 0.0 0.0 0.00 0.04 0.04 87 1015.2
20260905224504 76 320 0.0 0.0 0.00 0.04 0.04 87 1015.2
20260905224003 76 320 0.0 0.0 0.00 0.04 0.04 86 1015.2
20260905223501 76 320 0.0 0.0 0.00 0.04 0.04 86 1015.2
20260905222956 76 320 0.0 0.0 0.00 0.04 0.04 86 1015.2
20260905222456 76 321 0.0 0.0 0.00 0.04 0.04 86 1015.6
20260905221951 76 321 0.0 0.0 0.00 0.04 0.04 86 1015.6
20260905221448 76 321 0.0 0.0 0.00 0.04 0.04 84 1015.6
20260905220943 76 321 0.0 0.9 0.00 0.04 0.04 85 1015.6
20260905220439 76 319 0.0 0.9 0.00 0.04 0.04 85 1015.2
20260905215938 76 316 0.0 0.0 0.00 0.04 0.04 86 1015.6
20260905215434 76 316 0.0 0.0 0.00 0.04 0.04 85 1015.6
20260905214930 76 316 0.0 0.0 0.00 0.04 0.04 84 1015.6
20260905214426 76 315 0.0 0.0 0.00 0.04 0.04 84 1015.6
20260905213925 76 313 0.0 0.0 0.00 0.04 0.04 84 1015.6
20260905213421 76 312 0.0 0.0 0.00 0.04 0.04 86 1015.6
20260905212917 76 311 0.0 0.0 0.00 0.04 0.04 85 1015.9
20260905212412 77 311 0.0 1.7 0.00 0.04 0.04 83 1015.9
20260905211911 77 311 0.0 1.7 0.00 0.04 0.04 80 1015.9
20260905211407 77 271 0.0 0.9 0.00 0.04 0.04 83 1015.9
20260905210902 77 271 0.0 0.9 0.00 0.04 0.04 82 1016.3
20260905210357 77 275 0.0 0.9 0.00 0.04 0.04 81 1016.3
20260905205856 76 275 0.0 0.9 0.00 0.04 0.04 81 1016.3
20260905205351 76 273 0.0 3.5 0.00 0.04 0.04 80 1016.3
20260905204850 76 230 0.0 3.5 0.00 0.04 0.04 81 1016.3
20260905204347 76 196 0.0 0.9 0.00 0.04 0.04 85 1015.9
20260905203845 75 270 0.0 0.9 0.00 0.04 0.04 85 1016.3
20260905203341 75 276 0.0 0.9 0.00 0.04 0.04 85 1016.3
20260905202837 74 275 0.0 0.0 0.00 0.04 0.04 88 1016.3
20260905202331 74 275 0.0 0.0 0.00 0.04 0.04 91 1016.3
20260905201827 73 275 0.0 0.0 0.00 0.04 0.04 91 1016.7
20260905201322 73 277 0.0 0.0 0.00 0.04 0.04 93 1016.7
20260905200816 72 277 0.0 0.0 0.00 0.04 0.04 94 1016.7
20260905200313 72 277 0.0 0.0 0.00 0.04 0.04 95 1016.7
20260905195810 72 277 0.0 0.0 0.00 0.04 0.04 96 1016.7
20260905195307 72 227 0.0 0.0 0.00 0.04 0.04 98 1017.0
20260905194801 72 227 0.0 0.0 0.00 0.04 0.04 97 1016.7
20260905194300 71 227 0.0 0.0 0.00 0.04 0.04 97 1016.7
20260905193754 71 227 0.0 0.0 0.00 0.04 0.04 97 1016.7
20260905193249 71 227 0.0 0.0 0.00 0.04 0.04 96 1016.7
20260905192745 71 227 0.0 0.0 0.00 0.04 0.04 98 1016.7
20260905192241 71 227 0.0 0.0 0.00 0.04 0.04 99 1016.7
20260905191740 71 227 0.0 0.0 0.02 0.04 0.04 98 1016.7
20260905191239 71 227 0.0 0.0 0.02 0.04 0.04 98 1016.7
20260905190737 71 227 0.0 0.0 0.02 0.04 0.04 98 1016.7
20260905190237 71 227 0.0 0.0 0.03 0.04 0.04 98 1016.7
20260905185736 71 227 0.0 1.7 0.03 0.04 0.04 98 1017.0
20260905185230 71 227 0.0 1.7 0.04 0.04 0.04 97 1017.0
20260905184724 71 225 0.0 0.9 0.04 0.04 0.04 96 1017.3
20260905184224 71 110 0.0 0.9 0.04 0.04 0.04 98 1017.3
20260905183718 71 110 0.0 0.9 0.04 0.04 0.04 98 1017.3
20260905183213 70 110 0.0 0.9 0.04 0.04 0.04 97 1017.3
20260905182712 70 110 0.0 0.9 0.04 0.04 0.04 95 1017.3
20260905182207 71 110 0.0 0.9 0.03 0.04 0.04 93 1017.3
20260905181702 71 110 0.0 3.5 0.02 0.02 0.02 91 1017.8
20260905181201 73 261 0.9 3.5 0.02 0.02 0.02 87 1018.5
20260905180656 74 101 0.9 5.2 0.02 0.02 0.02 86 1017.8
20260905180151 76 100 1.7 10.4 0.01 0.01 0.01 83 1017.8
20260905175650 80 5 2.6 17.4 0.00 0.00 0.00 77 1017.8
20260905175146 83 277 0.9 17.4 0.00 0.00 0.00 69 1017.3
20260905174641 85 11 0.0 1.7 0.00 0.00 0.00 73 1016.7
20260905174137 85 281 0.0 1.7 0.00 0.00 0.00 72 1016.7
20260905173633 85 145 0.0 3.5 0.00 0.00 0.00 71 1016.7
20260905173128 86 263 0.0 3.5 0.00 0.00 0.00 69 1016.7
20260905172627 86 163 0.9 4.3 0.00 0.00 0.00 67 1017.0
20260905172122 87 10 0.9 4.3 0.00 0.00 0.00 64 1017.3
20260905171618 87 188 0.0 3.5 0.00 0.00 0.00 67 1017.3
20260905171114 88 244 0.0 4.3 0.00 0.00 0.00 66 1017.3
20260905170610 88 268 0.0 1.7 0.00 0.00 0.00 68 1017.3
20260905170105 88 268 0.0 1.7 0.00 0.00 0.00 67 1017.0
20260905165559 88 268 0.0 3.5 0.00 0.00 0.00 65 1017.0
20260905165054 87 247 0.0 3.5 0.00 0.00 0.00 64 1017.0
20260905164549 87 263 0.0 3.5 0.00 0.00 0.00 69 1017.0
20260905164044 87 263 0.0 3.5 0.00 0.00 0.00 67 1017.3
20260905163540 86 281 0.0 1.7 0.00 0.00 0.00 67 1017.3
20260905163036 86 239 0.0 1.7 0.00 0.00 0.00 68 1017.8
20260905162532 85 280 0.9 4.3 0.00 0.00 0.00 70 1017.8
20260905162026 85 204 0.9 5.2 0.00 0.00 0.00 68 1017.8
20260905161526 85 286 0.9 5.2 0.00 0.00 0.00 70 1017.8
20260905161024 84 104 0.0 3.5 0.00 0.00 0.00 72 1018.1
20260905160517 84 254 0.0 3.5 0.00 0.00 0.00 74 1017.8
20260905160018 83 98 0.0 4.3 0.00 0.00 0.00 74 1018.1
20260905155517 83 230 0.0 4.3 0.00 0.00 0.00 78 1018.1
20260905155015 82 201 0.0 3.5 0.00 0.00 0.00 79 1018.1
20260905154511 82 267 0.0 4.3 0.00 0.00 0.00 77 1018.1
20260905154007 81 271 0.0 4.3 0.00 0.00 0.00 78 1018.1
20260905153503 81 273 0.0 4.3 0.00 0.00 0.00 81 1018.1
20260905153002 80 252 0.0 4.3 0.00 0.00 0.00 81 1018.1
20260905152502 80 262 0.0 3.5 0.00 0.00 0.00 82 1017.8
20260905151957 80 267 0.0 3.5 0.00 0.00 0.00 83 1017.8
20260905151452 80 293 0.0 0.9 0.00 0.00 0.00 82 1017.8
20260905150947 79 296 0.0 0.0 0.00 0.00 0.00 82 1017.8
20260905150443 79 295 0.0 1.7 0.00 0.00 0.00 83 1017.8
20260905145938 78 296 0.0 1.7 0.00 0.00 0.00 84 1017.8
20260905145433 78 117 0.0 0.0 0.00 0.00 0.00 84 1017.8
20260905144933 78 76 0.0 0.0 0.00 0.00 0.00 85 1017.8
20260905144428 78 76 0.0 0.0 0.00 0.00 0.00 87 1017.8
20260905143927 77 77 0.0 0.0 0.00 0.00 0.00 87 1018.1
20260905143420 77 82 0.0 0.0 0.00 0.00 0.00 90 1018.1
20260905142915 76 82 0.0 0.0 0.00 0.00 0.00 89 1018.1
20260905142414 76 246 0.0 0.9 0.00 0.00 0.00 90 1018.1
20260905141910 75 245 0.0 0.9 0.00 0.00 0.00 91 1018.1
20260905141404 75 245 0.0 0.0 0.00 0.00 0.00 92 1018.1
20260905140900 74 244 0.0 0.0 0.00 0.00 0.00 94 1018.1
20260905140355 73 244 0.0 0.9 0.00 0.00 0.00 95 1018.1
20260905135854 73 232 0.0 0.9 0.00 0.00 0.00 95 1018.1
20260905135350 72 230 0.0 0.9 0.00 0.00 0.00 97 1018.1
20260905134846 72 230 0.0 0.9 0.00 0.00 0.00 97 1018.1
20260905134344 71 230 0.0 0.9 0.00 0.00 0.00 98 1018.5
20260905133839 71 228 0.0 0.9 0.00 0.00 0.00 100 1018.5
20260905133334 71 228 0.0 0.0 0.00 0.00 0.00 100 1018.5
20260905132833 71 228 0.0 0.0 0.00 0.00 0.00 100 1018.5
20260905132329 70 228 0.0 0.0 0.00 0.00 0.00 100 1018.5
20260905131829 70 228 0.0 0.0 0.00 0.00 0.00 100 1018.5
20260905131325 70 228 0.0 0.0 0.00 0.00 0.00 100 1018.5
20260905130820 69 228 0.0 0.0 0.00 0.00 0.00 100 1018.5
20260905130318 69 228 0.0 0.0 0.00 0.00 0.00 100 1018.5
20260905125814 69 228 0.0 0.0 0.00 0.00 0.00 100 1018.5
20260905125309 69 228 0.0 0.0 0.00 0.00 0.00 100 1018.5
20260905124805 69 228 0.0 0.0 0.00 0.00 0.00 100 1018.5
20260905124301 69 228 0.0 0.0 0.00 0.00 0.00 100 1018.5
20260905123755 68 228 0.0 0.0 0.00 0.00 0.00 100 1018.5
20260905123253 68 228 0.0 0.0 0.00 0.00 0.00 100 1018.5
20260905122752 68 228 0.0 0.0 0.00 0.00 0.00 100 1018.5
20260905122252 68 228 0.0 0.0 0.00 0.00 0.00 100 1018.5
20260905121747 68 228 0.0 0.0 0.00 0.00 0.00 100 1018.5
20260905121244 68 228 0.0 0.0 0.00 0.00 0.00 100 1018.5
20260905120742 68 228 0.0 0.0 0.00 0.00 0.00 99 1018.5
20260905120236 68 228 0.0 0.0 0.00 0.00 0.00 99 1018.1
20260905115731 68 228 0.0 0.0 0.00 0.00 0.00 99 1018.1
20260905115225 68 228 0.0 0.0 0.00 0.00 0.00 100 1018.1
20260905114720 68 228 0.0 0.0 0.00 0.00 0.00 100 1018.1
20260905114218 68 228 0.0 0.0 0.00 0.00 0.00 100 1018.1
20260905113713 68 228 0.0 0.0 0.00 0.00 0.00 100 1018.1
20260905113209 68 228 0.0 0.0 0.00 0.00 0.00 100 1018.1
20260905112709 68 228 0.0 0.0 0.00 0.00 0.00 100 1018.1
20260905112204 68 228 0.0 0.0 0.00 0.00 0.00 99 1017.8
20260905111704 68 228 0.0 0.0 0.00 0.00 0.00 100 1017.8
20260905111204 68 228 0.0 0.0 0.00 0.00 0.00 100 1017.3
20260905110703 68 228 0.0 0.0 0.00 0.00 0.00 100 1017.3
20260905110157 68 228 0.0 0.0 0.00 0.00 0.00 99 1017.3
20260905105652 67 228 0.0 0.0 0.00 0.00 0.00 99 1017.3
20260905105146 67 228 0.0 0.0 0.00 0.00 0.00 99 1017.3
20260905104641 67 228 0.0 0.0 0.00 0.00 0.00 99 1017.3
20260905104137 67 228 0.0 0.0 0.00 0.00 0.00 98 1017.3
20260905103632 68 228 0.0 0.0 0.00 0.00 0.00 98 1017.3
20260905103127 68 228 0.0 0.0 0.00 0.00 0.00 98 1017.3
20260905102623 68 228 0.0 0.0 0.00 0.00 0.00 98 1017.3
20260905102120 68 228 0.0 0.0 0.00 0.00 0.00 98 1017.3
20260905101618 68 228 0.0 0.0 0.00 0.00 0.00 98 1017.0
20260905101116 68 228 0.0 0.0 0.00 0.00 0.00 99 1017.0
20260905100612 69 228 0.0 0.0 0.00 0.00 0.00 100 1017.0
20260905100107 68 228 0.0 0.0 0.00 0.00 0.00 99 1017.0
20260905095601 68 228 0.0 0.0 0.00 0.00 0.00 98 1017.0
20260905095057 68 228 0.0 0.0 0.00 0.00 0.00 97 1017.0
20260905094551 68 228 0.0 0.0 0.00 0.00 0.00 96 1017.0
20260905094050 69 228 0.0 0.0 0.00 0.00 0.00 98 1017.3
20260905093545 69 228 0.0 0.0 0.00 0.00 0.00 97 1017.3
20260905093042 69 228 0.0 0.0 0.00 0.00 0.00 99 1017.0
20260905092541 69 228 0.0 0.0 0.00 0.00 0.00 99 1017.3
20260905092037 69 228 0.0 0.0 0.00 0.00 0.00 99 1017.3
20260905091531 69 228 0.0 0.0 0.00 0.00 0.00 99 1017.3
20260905091030 68 228 0.0 0.0 0.00 0.00 0.00 98 1017.3
20260905090525 68 228 0.0 0.0 0.00 0.00 0.00 97 1017.3
20260905090020 69 228 0.0 0.0 0.00 0.00 0.00 96 1017.3
20260905085519 69 228 0.0 0.0 0.00 0.00 0.00 97 1017.3
20260905085015 69 228 0.0 0.0 0.00 0.00 0.00 99 1017.3
20260905084514 69 228 0.0 0.0 0.00 0.00 0.00 99 1017.3
20260905084009 69 228 0.0 0.0 0.00 0.00 0.00 99 1017.3
20260905083504 69 228 0.0 0.0 0.00 0.00 0.00 99 1017.8
20260905083001 69 228 0.0 0.0 0.00 0.00 0.00 99 1017.8
20260905082456 69 228 0.0 0.0 0.00 0.00 0.00 99 1017.8
20260905081951 69 228 0.0 0.0 0.00 0.00 0.00 99 1017.8
20260905081446 68 228 0.0 0.0 0.00 0.00 0.00 99 1017.8
20260905080945 68 228 0.0 0.0 0.00 0.00 0.00 98 1017.8
20260905080440 68 228 0.0 0.0 0.00 0.00 0.00 97 1017.8
20260905075939 69 228 0.0 0.0 0.00 0.00 0.00 97 1017.8
20260905075434 69 228 0.0 0.0 0.00 0.00 0.00 98 1017.8
20260905074932 69 228 0.0 0.0 0.00 0.00 0.00 99 1017.8
20260905074428 69 228 0.0 0.0 0.00 0.00 0.00 98 1017.8
20260905073924 69 228 0.0 0.0 0.00 0.00 0.00 98 1018.1
20260905073418 69 228 0.0 0.0 0.00 0.00 0.00 99 1018.1
20260905072914 69 228 0.0 0.0 0.00 0.00 0.00 99 1018.1
20260905072408 69 228 0.0 0.0 0.00 0.00 0.00 99 1018.1
20260905071859 69 228 0.0 0.0 0.00 0.00 0.00 99 1018.1
20260905071355 69 228 0.0 0.0 0.00 0.00 0.00 99 1018.1
20260905070855 69 228 0.0 0.0 0.00 0.00 0.00 98 1018.1
20260905070351 69 228 0.0 0.0 0.00 0.00 0.00 98 1018.1
20260905065850 69 228 0.0 0.0 0.00 0.00 0.00 97 1018.1
20260905065348 69 228 0.0 0.0 0.00 0.00 0.00 98 1018.5
20260905064838 69 228 0.0 0.0 0.00 0.00 0.00 97 1018.1
20260905064334 69 228 0.0 0.0 0.00 0.00 0.00 98 1018.5
20260905063832 69 228 0.0 0.0 0.00 0.00 0.00 98 1018.5
20260905063328 69 228 0.0 0.0 0.00 0.00 0.00 98 1018.5
20260905062825 69 228 0.0 0.0 0.00 0.00 0.00 97 1018.5
20260905062319 69 228 0.0 0.0 0.00 0.00 0.00 97 1018.5
20260905061814 69 228 0.0 0.0 0.00 0.00 0.00 97 1018.5
20260905061314 70 228 0.0 0.0 0.00 0.00 0.00 97 1018.5
20260905060808 70 228 0.0 0.0 0.00 0.00 0.00 96 1018.5
20260905060305 70 228 0.0 0.0 0.00 0.00 0.00 96 1018.5
20260905055803 70 228 0.0 0.0 0.00 0.00 0.00 97 1018.5
20260905055258 70 228 0.0 0.0 0.00 0.00 0.00 97 1018.5
20260905054753 70 228 0.0 0.0 0.00 0.00 0.00 97 1018.8
20260905054250 70 228 0.0 0.0 0.00 0.00 0.00 97 1018.8
20260905053749 71 228 0.0 0.0 0.00 0.00 0.00 97 1018.8
20260905053244 71 228 0.0 0.0 0.00 0.00 0.00 97 1018.8
20260905052744 70 228 0.0 0.0 0.00 0.00 0.00 98 1018.8